Location: Alto Pass Reservoir
(37.5801°N, 89.3084°W)
Time: 20:52:51
(UTC+00:00)

Cosmos 2298 Rocket - Pass Details

Date: 06 July 2022
Orbit: 775 x 784 km, 74.0° (Epoch: 11 August)

Event Time Altitude Azimuth Distance (km) Brightness Sun altitude
Rises 09:36:11 0° 332° (NNW) 3,279 7.4 -11.5°
Reaches altitude 10° 09:38:44 10° 325° (NW) 2,346 6.6 -11.1°
Maximum altitude 09:43:35 37° 259° (W) 1,207 4.6 -10.4°
Drops below altitude 10° 09:48:24 10° 193° (SSW) 2,329 6.0 -9.6°
Sets 09:50:56 0° 185° (S) 3,251 6.8 -9.3°
Enters shadow 09:51:01 - 185° (S) 3,286 6.9 -9.2°
